Location: Balaclava NSW 2575, Australia
(34.4510°S, 150.4953°E)
Time: 18:46:03
(UTC+10:00)

Vanguard 2 - Pass Details

Date: 17 June 2021
Orbit: 552 x 2937 km, 32.9° (Epoch: 24 July)

Event Time Altitude Azimuth Distance (km) Brightness Sun altitude
Rises 05:38:34 0° 311° (NW) 3,627 - -16.9°
Exits shadow 05:38:45 - 311° (NW) 3,566 10.6 -16.9°
Reaches altitude 10° 05:40:49 10° 317° (NW) 2,913 10.2 -16.5°
Maximum altitude 05:47:50 49° 30° (NNE) 1,866 9.8 -15.1°
Drops below altitude 10° 05:59:28 10° 99° (E) 4,739 12.6 -12.9°
Sets 06:04:10 0° 103° (ESE) 6,095 13.2 -11.9°
